Temp_Advection
nan nan nan nan nan nan nan nan nan nan nan nan nan nan nan nan nan nan nan nan nan nan nan nan nan nan nan nan nan nan nan nan nan nan nan nan nan nan nan nan nan nan nan nan nan nan nan nan nan
nan 0 0 -0 -0 0 -0 -0 0 0 -0 0 -1 -1 -0 -0 0 0 -0 0 0 0 0 0 0 0 0 0 0 -0 -0 0 0 0 1 0 1 1 0 -0 0 0 -0 0 0 -0 -0 0 nan
nan 0 -0 -0 0 -0 -0 0 0 0 -0 -0 -0 -1 -0 -0 0 -0 -0 0 0 0 0 0 0 0 0 0 0 0 -0 -0 -0 0 1 0 1 1 0 -0 -0 -0 0 0 0 0 -0 0 nan
nan 0 -0 -0 -0 -0 0 0 -0 0 0 -0 -2 -1 0 -0 -0 -0 0 0 0 0 0 0 0 0 0 0 0 0 0 -0 -0 0 1 0 1 1 0 0 -0 -0 0 0 0 0 0 0 nan
nan -0 -0 0 -0 0 -0 -0 -0 -0 -0 0 -0 -0 0 0 -0 0 0 0 0 0 0 0 0 0 0 -0 0 0 -0 -0 0 0 0 0 0 0 0 0 0 0 0 0 0 0 0 0 nan
nan -0 -0 -0 -0 -0 -0 -0 -0 -0 -0 -0 -0 -0 0 0 0 0 -0 0 0 0 0 0 0 -0 0 -0 -0 -1 -1 -0 0 0 1 0 0 0 0 0 0 0 0 0 0 0 0 -0 nan
nan 0 -0 -0 -0 0 -0 -0 -0 -0 -0 -0 -2 -0 0 1 0 -0 -0 0 -0 0 0 0 0 -0 0 0 -0 -0 -1 -1 -0 0 0 1 0 1 0 0 0 0 0 1 1 0 0 -0 nan
nan -0 -0 -0 -0 -0 -0 0 -0 -0 -0 0 -1 -1 -1 -0 0 -0 0 0 0 0 0 0 0 -0 -0 0 0 0 -0 -1 -1 -1 -0 1 0 0 1 0 0 0 0 1 1 1 0 0 nan
nan -0 -0 -0 0 0 -0 -0 0 -0 -0 0 0 -1 -1 -1 0 0 0 0 0 0 0 0 0 -0 -0 -0 0 0 0 -0 -0 -1 -1 -1 -0 -0 0 0 0 0 0 0 1 0 0 0 nan
nan -0 -0 -0 -0 0 0 -0 -0 -0 -0 -0 0 0 1 0 0 0 0 -0 0 0 0 0 0 -0 0 0 0 0 0 0 0 0 -0 -1 -1 -1 -1 0 0 0 0 1 1 1 0 0 nan
nan -0 -0 -0 0 0 0 -0 0 -1 -0 -1 -1 -2 -1 -0 -0 -0 0 -0 -0 -0 0 0 0 0 0 0 0 0 0 0 -0 0 -0 -0 -0 -0 -1 -1 0 0 0 1 1 1 1 0 nan
nan -0 -0 0 0 0 0 0 0 -0 -0 -0 -0 -0 -1 -0 -0 0 -0 0 -0 0 0 0 0 0 0 0 0 0 0 0 -0 -0 -0 0 0 -0 -0 -1 -0 0 1 1 1 1 1 0 nan
nan -0 0 0 0 0 0 0 0 0 0 1 1 3 1 -0 0 0 -0 0 0 0 0 0 -0 0 -0 0 0 0 0 -0 0 0 -0 0 0 0 -0 -1 -1 -1 -0 1 1 1 1 0 nan
nan 0 0 0 0 0 0 0 0 0 1 1 1 0 1 0 0 0 0 0 0 0 0 0 0 0 -0 -0 0 0 0 0 0 0 0 -0 0 0 0 -1 -1 -1 -1 0 1 1 1 1 nan
nan 0 -0 0 0 0 0 0 0 0 1 2 2 0 0 0 0 0 0 0 0 0 0 0 0 -0 -0 -0 0 0 0 0 0 0 0 0 -0 0 -0 -0 -0 -0 -0 -0 0 0 1 0 nan
nan -0 0 0 0 0 0 0 -0 1 1 2 1 1 1 1 0 0 0 0 1 0 0 1 -0 -0 -0 0 0 0 0 0 0 0 0 0 0 0 0 0 -0 -0 -0 -0 -0 -0 -0 0 nan
nan 0 -0 -0 0 0 0 -0 0 1 1 0 0 1 1 1 0 0 0 1 0 0 1 0 -0 -1 -0 0 0 0 0 0 0 0 0 0 0 0 0 0 0 -0 -0 -0 -0 -0 0 0 nan
nan -0 -0 0 -0 0 0 -0 0 1 1 0 -0 0 1 0 -0 0 1 1 0 0 0 -0 -0 -0 0 0 0 0 0 0 0 0 0 0 0 0 0 0 0 0 -0 -0 -0 -0 0 0 nan
nan -0 -0 -0 0 -0 0 -0 0 0 0 -0 -0 0 0 -0 0 1 1 0 -0 0 0 -0 -0 -0 -0 -0 -0 -0 -0 0 0 0 0 0 0 0 0 0 0 0 0 -0 -0 -0 -0 -0 nan
nan 0 0 0 0 0 -0 0 0 0 -0 -1 -1 -1 -1 -1 0 1 0 0 -0 -0 0 -0 -0 -0 -0 0 0 0 1 0 0 0 0 0 0 0 0 0 0 0 0 -0 -0 -0 -1 -1 nan
nan 0 0 0 -0 -0 -0 -0 0 0 -0 1 -0 0 0 -0 -0 0 0 -0 -1 0 0 0 -0 -0 0 0 0 0 -0 -0 -0 -0 0 0 0 0 0 0 0 0 0 0 0 0 0 -0 nan
nan -0 0 0 -0 0 0 0 -0 0 0 0 1 1 0 -1 -1 -0 0 -0 -0 0 0 -0 -0 0 0 0 -0 -1 -0 -0 -0 0 0 0 0 0 0 0 0 0 0 1 0 0 1 0 nan
nan 0 0 0 0 0 0 -0 -1 0 -0 -0 -0 -1 -1 -1 1 0 0 -0 0 -0 0 0 -0 0 0 0 -0 0 0 0 0 0 0 0 0 0 0 0 0 0 0 0 0 0 0 0 nan
nan -0 -1 -0 -0 -0 -0 -0 -0 -0 -0 -0 -0 -0 -0 1 1 0 1 0 0 0 1 0 -0 0 0 0 0 0 0 0 0 -0 -0 0 0 0 0 0 0 0 0 0 0 0 0 0 nan
nan -0 -0 0 0 -0 0 -0 -1 1 0 0 -0 -1 -0 1 1 1 1 0 0 0 0 0 0 0 0 0 0 0 0 0 0 0 0 0 0 0 0 0 0 0 0 0 0 0 0 0 nan
nan 0 -0 0 -0 0 -0 -0 0 0 -0 -1 -1 0 1 1 0 0 1 1 -0 0 0 0 0 0 0 0 0 0 0 0 0 0 0 0 0 0 0 0 0 0 0 0 0 0 0 0 nan
nan 0 -0 -0 -0 0 -0 -0 0 0 0 -0 0 2 2 1 0 1 1 1 0 -0 0 0 0 0 0 0 0 0 0 0 0 0 0 0 0 0 0 0 0 0 0 0 0 0 0 0 nan
nan 0 -0 0 0 -0 0 -0 0 0 1 0 0 1 1 1 1 1 1 1 0 -0 0 0 0 0 0 0 0 0 0 0 0 0 0 0 0 0 0 0 0 0 0 0 0 0 0 0 nan
nan 0 0 -0 -0 1 0 -0 0 0 1 0 -0 -0 0 1 1 1 1 1 1 0 0 1 1 1 1 0 0 0 0 0 0 0 0 0 0 0 0 0 0 0 0 0 0 0 0 0 nan
nan nan nan nan nan nan nan nan nan nan nan nan nan nan nan nan nan nan nan nan nan nan nan nan nan nan nan nan nan nan nan nan nan nan nan nan nan nan nan nan nan nan nan nan nan nan nan nan nan
Wind_Speed
9 11 8 4 4 4 2 3 1 4 3 8 9 9 11 8 3 3 22 18 17 22 18 18 15 10 7 5 9 7 11 14 14 12 16 19 17 21 20 17 16 14 13 16 19 18 20 20 20
11 10 6 3 4 3 4 3 5 2 16 17 16 10 9 3 6 18 25 19 11 23 21 15 11 9 7 5 8 7 11 12 14 14 18 21 20 22 18 14 12 13 15 18 17 19 20 21 23
11 8 1 4 3 4 4 2 5 10 14 4 7 13 5 8 16 27 21 21 15 25 22 14 11 9 7 7 9 11 11 12 13 15 20 21 19 20 15 12 10 8 10 16 18 20 20 20 22
7 4 3 4 4 4 6 7 8 10 7 4 19 9 6 7 20 19 24 20 16 23 23 12 11 10 7 10 12 10 11 13 14 17 20 20 19 15 15 12 10 12 14 18 19 21 20 20 20
6 2 3 3 3 4 2 11 11 4 6 9 4 5 5 19 13 22 22 18 18 23 21 16 12 9 10 12 13 12 13 13 16 18 20 18 18 17 17 13 11 12 15 19 20 23 21 20 19
4 2 2 3 3 2 1 15 12 5 9 11 11 9 5 16 19 26 23 19 18 21 19 20 15 10 11 12 13 12 14 15 18 17 20 19 19 17 17 15 12 12 11 19 21 21 19 18 18
5 4 4 3 3 4 6 13 10 10 10 5 20 5 13 30 24 27 22 17 16 22 19 19 18 10 6 6 8 9 12 16 18 19 19 22 21 20 19 16 14 14 12 21 23 21 20 18 20
3 3 2 4 3 4 5 6 10 10 3 20 15 8 11 34 31 26 22 17 16 22 19 14 11 9 6 6 9 9 11 15 17 20 18 18 18 18 18 17 16 14 17 19 21 21 21 20 19
3 3 3 3 5 3 9 4 5 7 17 6 8 10 16 37 31 28 25 21 24 23 18 15 12 10 8 8 9 10 11 12 14 15 18 20 19 18 18 18 17 15 17 18 20 20 19 19 18
4 4 8 3 2 4 5 6 11 7 9 4 10 10 39 39 37 33 31 29 28 25 20 16 13 11 9 10 10 12 12 12 11 11 13 15 14 16 20 20 19 21 20 19 21 21 20 19 20
6 5 5 3 2 2 5 5 6 14 3 11 22 34 43 41 37 34 31 28 28 23 21 17 13 14 11 11 12 12 13 12 11 10 10 11 13 15 18 21 21 21 19 20 23 23 22 21 19
4 8 4 5 3 4 4 7 5 15 5 12 21 30 45 43 40 37 34 30 26 25 21 19 15 12 11 13 13 12 12 12 11 10 11 11 12 14 17 20 23 21 20 21 22 22 21 20 19
4 4 6 6 6 5 5 5 5 10 8 10 27 39 42 42 39 36 31 28 25 26 24 20 16 13 11 14 14 13 13 12 12 11 11 11 11 14 16 22 23 21 20 24 22 21 21 19 16
7 7 4 6 6 4 6 4 5 7 12 21 32 41 40 41 39 37 33 31 27 27 23 21 20 15 13 15 14 14 13 13 12 11 10 12 12 14 15 17 19 18 19 25 23 21 20 18 16
6 4 1 5 6 4 6 2 8 13 21 29 34 39 40 39 37 38 36 32 27 25 24 24 20 16 14 16 15 14 13 12 12 11 12 12 13 14 14 15 16 17 21 24 22 23 20 18 16
4 3 2 1 9 3 6 7 7 21 30 30 35 37 39 41 38 36 34 30 25 25 24 26 22 18 16 17 15 14 14 13 12 12 12 13 13 14 14 15 16 18 19 21 22 21 21 19 16
1 3 5 4 12 4 6 7 2 28 31 27 31 34 36 39 38 36 32 28 28 27 28 26 24 21 19 18 16 15 15 14 14 13 13 13 13 14 14 14 16 17 18 20 20 20 18 18 16
5 3 4 5 7 5 5 9 2 25 27 29 31 33 36 40 40 36 32 31 30 29 27 26 23 22 21 19 19 18 16 16 15 14 14 14 14 15 15 15 16 17 19 20 19 18 17 16 18
5 4 5 3 3 4 8 5 8 17 20 21 30 33 36 39 36 32 34 35 33 31 29 27 25 24 24 23 22 20 18 17 17 16 15 15 15 15 16 16 16 17 17 18 19 21 20 21 21
3 3 4 2 2 4 2 11 5 9 16 29 33 34 37 37 36 35 37 38 37 33 32 30 26 25 23 21 19 18 18 17 16 17 17 16 15 16 17 16 17 18 19 20 20 21 24 23 23
6 8 6 5 3 1 4 7 5 8 18 27 33 39 39 42 40 39 41 43 40 36 35 33 29 25 23 22 21 21 20 20 21 20 19 18 17 17 17 17 17 18 17 19 20 21 22 24 20
8 7 5 6 5 4 4 5 6 7 9 10 29 35 40 41 40 41 44 45 43 39 35 33 30 27 25 25 25 23 22 22 20 20 19 20 19 18 18 18 18 17 18 19 20 21 20 18 18
7 6 7 5 4 4 1 2 8 2 9 12 19 37 44 47 44 44 50 47 44 40 36 35 31 29 28 27 24 21 19 18 19 21 21 21 21 19 19 18 18 18 18 18 20 23 20 16 17
9 7 7 5 3 2 8 8 5 7 9 7 10 29 38 44 45 43 48 45 45 41 37 36 33 31 30 28 24 21 20 21 22 23 23 22 21 21 20 19 18 18 19 19 20 22 20 16 16
5 7 1 3 2 6 2 4 14 8 7 7 14 33 39 42 45 45 45 50 47 45 41 38 36 32 32 29 26 23 21 20 19 21 22 23 23 23 22 20 20 19 19 19 20 21 20 17 15
6 8 6 8 5 4 4 8 7 5 6 14 17 25 37 35 42 45 45 52 48 46 41 39 38 33 32 30 27 24 21 19 18 18 20 19 19 19 20 20 20 19 19 19 20 20 20 19 18
6 5 5 6 3 3 5 7 8 4 6 4 8 21 35 32 36 41 42 48 48 47 43 40 38 35 31 31 28 27 23 20 18 18 18 18 19 19 19 19 19 19 19 19 19 19 19 19 19
3 4 3 2 2 5 5 5 6 5 11 7 7 16 28 29 28 31 40 44 47 46 43 39 36 36 33 31 31 28 24 20 18 17 17 18 17 18 18 18 19 19 18 18 18 18 18 18 18
2 1 1 3 5 6 2 6 7 9 5 10 6 18 21 22 24 29 33 40 43 43 42 40 37 36 36 32 32 30 25 22 19 17 16 16 16 16 16 15 16 16 16 16 16 16 16 16 16
1 5 5 4 6 2 4 9 2 3 3 13 18 22 21 21 20 22 30 37 41 42 40 39 37 37 36 32 33 31 27 24 21 19 17 16 15 14 14 14 14 14 14 15 14 14 14 14 15
Wind_Direction
167 166 161 151 66 64 270 255 133 131 75 63 105 110 109 59 98 171 142 149 161 151 139 141 150 166 171 156 116 122 105 107 98 92 100 104 100 112 110 104 94 93 94 104 91 92 89 85 89
169 158 153 117 92 81 264 300 139 211 136 106 80 79 57 82 103 139 148 159 177 162 152 163 165 167 165 155 123 115 106 103 103 98 105 106 105 112 109 109 102 92 85 106 107 101 95 93 93
169 156 125 103 115 177 206 167 161 126 145 114 102 79 80 109 134 144 157 160 169 164 157 171 171 167 165 165 120 113 112 109 102 104 110 107 109 113 115 107 90 75 98 111 110 106 99 99 99
159 154 78 90 211 249 179 181 169 139 107 76 119 71 84 142 149 163 158 171 174 169 166 169 167 159 170 127 116 116 107 110 105 110 112 107 113 122 111 114 93 86 103 114 113 111 105 106 104
141 137 83 97 257 283 139 169 163 148 105 126 122 133 86 149 172 159 160 164 165 159 165 175 175 156 136 127 122 116 114 111 108 115 110 112 127 126 130 124 117 102 107 118 121 115 106 101 99
121 116 72 176 237 224 166 174 155 126 129 136 107 103 132 166 171 160 163 166 153 147 164 187 190 163 137 129 128 135 128 119 120 123 120 124 134 134 130 132 125 114 122 124 113 115 118 114 111
124 102 207 198 203 170 189 178 167 145 130 153 138 85 146 158 171 163 172 175 165 161 173 175 187 169 163 155 144 148 143 132 125 137 138 137 142 137 136 135 127 124 116 128 120 127 128 122 120
145 101 200 234 194 203 145 136 152 127 97 142 145 150 176 167 168 175 177 178 178 167 177 185 185 196 203 178 155 146 149 144 145 142 141 142 139 138 140 133 135 134 124 126 129 132 133 131 128
162 78 206 236 161 204 158 125 143 134 140 150 177 174 173 168 174 176 177 174 166 171 181 183 188 196 196 184 164 157 161 161 156 153 155 152 149 147 144 140 146 131 128 125 132 137 140 141 135
144 145 211 229 180 206 151 151 146 135 136 103 143 147 161 169 175 179 178 173 169 176 180 187 189 194 173 171 159 157 162 160 153 143 138 149 158 165 146 143 144 140 133 128 137 140 143 142 142
182 192 205 203 180 134 153 136 158 135 216 197 165 157 166 172 178 185 182 181 175 178 180 187 197 182 176 172 165 159 162 162 158 155 149 149 147 158 159 156 140 134 136 132 139 144 145 144 140
172 233 198 183 197 193 173 157 153 168 201 214 189 177 173 179 183 189 184 179 177 179 180 184 191 187 184 179 171 166 167 169 168 161 150 149 152 152 154 143 142 138 146 136 144 147 148 150 142
195 226 189 186 197 206 174 188 187 202 197 191 172 171 177 183 186 187 185 181 184 180 182 189 199 196 196 186 176 172 169 175 175 169 160 156 158 154 153 148 146 146 150 144 148 150 150 150 149
215 185 179 194 206 203 187 190 186 195 183 172 172 176 182 187 187 184 186 187 195 187 189 192 204 198 204 192 183 178 177 176 176 174 170 164 167 167 163 163 165 162 155 153 154 153 154 155 155
153 130 17 214 199 223 171 256 221 189 174 169 178 181 186 192 189 190 189 193 197 198 200 194 199 200 205 197 189 183 182 179 177 176 173 170 171 172 171 172 169 163 159 163 168 162 161 165 168
135 86 169 242 153 218 177 254 226 186 176 172 181 186 191 192 194 195 196 201 196 193 193 193 197 208 207 196 191 186 184 183 181 179 174 170 170 172 172 172 169 167 166 170 174 176 178 181 179
233 199 203 302 193 145 181 250 259 183 182 175 183 188 195 193 196 200 203 202 189 191 189 193 200 211 200 193 190 188 185 184 181 179 176 173 172 174 178 176 173 170 171 172 176 178 188 181 178
171 202 225 216 205 189 190 255 204 187 183 183 187 193 199 199 199 201 204 192 195 192 194 198 197 198 195 193 190 188 186 183 181 180 178 176 176 178 179 180 178 171 171 171 174 179 177 180 171
155 169 196 223 215 148 217 263 224 182 192 190 194 197 201 204 202 201 200 193 196 197 200 200 197 197 197 194 194 190 189 184 182 181 179 177 179 180 178 180 177 170 173 171 172 173 172 163 160
189 182 231 255 137 167 160 253 240 203 211 203 200 201 206 206 202 200 197 199 203 206 203 202 201 202 198 198 197 195 191 184 185 184 180 178 180 181 179 183 180 175 175 173 171 173 162 158 156
221 209 207 199 71 336 36 302 221 229 224 217 214 213 208 208 201 199 197 202 208 210 207 204 202 201 197 193 194 191 192 189 186 187 186 181 180 181 181 183 184 181 180 174 169 172 173 164 161
215 203 159 156 112 218 137 267 260 224 230 207 211 207 208 208 209 203 198 203 208 209 207 206 209 199 196 197 198 202 203 196 194 191 187 185 182 183 183 185 185 184 178 180 175 174 178 175 174
229 161 175 154 141 97 208 72 271 140 227 223 214 208 208 212 209 206 201 203 205 209 209 207 209 202 199 199 203 203 202 203 194 190 191 189 186 185 187 186 187 187 185 185 185 182 185 187 189
144 80 52 57 94 299 212 190 237 201 209 225 214 215 207 208 210 209 205 203 205 208 208 207 207 205 201 200 199 199 199 198 196 194 193 192 191 190 190 190 191 191 193 193 193 194 197 199 200
101 104 5 339 334 227 208 203 244 247 234 218 207 211 213 208 207 206 202 202 204 204 208 207 207 207 203 200 198 197 201 205 206 203 199 197 196 196 196 196 196 197 197 198 200 203 206 209 210
191 158 157 196 207 227 120 226 242 234 267 256 247 220 207 205 207 206 204 200 204 204 208 206 207 206 208 201 199 199 200 200 200 204 203 202 202 202 201 201 201 202 203 205 208 212 216 220 222
184 201 159 103 38 59 215 280 293 220 258 262 209 197 197 192 199 203 201 202 205 205 209 208 207 208 207 206 199 198 198 196 197 196 199 199 196 199 202 203 204 206 208 211 214 218 222 228 232
156 173 96 1 160 242 250 264 238 250 245 213 198 183 183 186 187 194 202 202 206 208 207 208 212 210 206 207 202 200 198 197 197 198 198 198 197 197 201 204 205 208 211 215 219 223 227 232 236
152 221 203 141 158 184 234 256 217 217 221 199 193 186 184 185 196 198 196 204 206 206 205 207 206 207 204 205 204 199 197 199 199 198 196 198 197 196 198 201 205 207 211 216 220 225 230 235 239
299 210 166 159 234 228 167 260 162 234 237 185 181 185 182 184 178 190 193 193 199 202 205 205 204 206 204 204 204 199 198 202 202 199 198 199 199 197 200 203 205 207 210 215 220 226 233 237 241
Height
1517 1517 1518 1520 1531 1533 1534 1523 1517 1520 1520 1521 1517 1519 1524 1532 1536 1546 1544 1549 1553 1555 1559 1559 1561 1562 1563 1562 1562 1561 1561 1561 1561 1560 1560 1562 1563 1565 1567 1566 1565 1565 1566 1566 1567 1567 1567 1567 1567
1517 1518 1519 1518 1536 1542 1535 1519 1518 1517 1520 1520 1520 1524 1527 1537 1537 1540 1544 1549 1553 1555 1559 1560 1561 1563 1563 1563 1562 1561 1561 1561 1561 1561 1562 1563 1567 1568 1568 1568 1567 1567 1568 1568 1568 1569 1570 1570 1570
1517 1517 1520 1522 1537 1537 1530 1518 1518 1519 1519 1518 1524 1527 1532 1536 1538 1541 1545 1548 1552 1556 1558 1560 1562 1562 1563 1562 1562 1561 1561 1562 1562 1563 1564 1565 1569 1569 1570 1569 1568 1568 1570 1570 1571 1572 1572 1573 1573
1516 1519 1521 1528 1529 1519 1517 1516 1516 1518 1519 1519 1523 1531 1535 1536 1538 1541 1545 1549 1551 1555 1558 1560 1561 1562 1562 1563 1562 1562 1562 1563 1564 1565 1566 1568 1570 1570 1572 1572 1571 1571 1571 1572 1573 1574 1575 1575 1576
1517 1518 1525 1530 1524 1516 1514 1514 1515 1516 1517 1521 1523 1534 1536 1539 1540 1542 1544 1548 1551 1554 1558 1560 1561 1562 1562 1562 1563 1563 1564 1565 1566 1567 1569 1571 1572 1573 1574 1574 1574 1574 1573 1575 1575 1575 1578 1579 1578
1515 1518 1530 1531 1523 1514 1514 1514 1514 1516 1518 1522 1525 1531 1538 1539 1541 1543 1545 1549 1551 1555 1558 1558 1560 1561 1562 1562 1563 1564 1564 1565 1567 1569 1570 1572 1573 1573 1575 1575 1576 1576 1575 1577 1577 1578 1580 1581 1582
1513 1520 1526 1523 1518 1515 1513 1513 1515 1514 1518 1521 1522 1533 1539 1539 1541 1544 1547 1549 1552 1555 1557 1558 1559 1561 1561 1562 1563 1563 1564 1565 1567 1569 1570 1571 1572 1574 1575 1577 1578 1578 1577 1579 1580 1581 1582 1583 1584
1514 1515 1520 1517 1518 1515 1510 1513 1514 1515 1518 1521 1522 1529 1538 1536 1541 1543 1548 1550 1552 1555 1556 1559 1560 1561 1562 1562 1563 1564 1564 1565 1566 1568 1569 1572 1573 1575 1576 1578 1578 1579 1579 1581 1581 1582 1583 1585 1586
1514 1521 1526 1516 1515 1509 1509 1511 1513 1515 1517 1520 1521 1522 1524 1534 1539 1542 1546 1549 1551 1554 1556 1558 1559 1560 1561 1563 1563 1564 1564 1565 1566 1567 1568 1570 1572 1574 1576 1577 1578 1580 1581 1582 1583 1585 1586 1587 1587
1512 1522 1516 1509 1507 1508 1508 1510 1512 1513 1518 1520 1520 1523 1525 1530 1536 1538 1541 1545 1548 1551 1555 1557 1558 1559 1561 1563 1564 1564 1565 1566 1567 1568 1569 1571 1572 1573 1574 1576 1578 1580 1581 1583 1585 1586 1588 1589 1591
1509 1513 1507 1507 1507 1506 1508 1509 1510 1512 1516 1515 1515 1519 1525 1530 1533 1537 1540 1544 1547 1550 1553 1557 1558 1559 1559 1562 1564 1565 1565 1566 1568 1569 1570 1571 1572 1572 1573 1576 1579 1582 1584 1585 1586 1588 1589 1591 1593
1508 1504 1503 1506 1505 1507 1508 1508 1509 1509 1511 1511 1514 1514 1519 1526 1528 1532 1538 1542 1547 1549 1551 1554 1555 1559 1560 1560 1563 1565 1566 1567 1568 1569 1571 1572 1573 1573 1574 1576 1580 1583 1585 1586 1589 1590 1591 1593 1595
1505 1503 1502 1503 1505 1506 1506 1508 1509 1508 1509 1511 1514 1518 1519 1524 1528 1533 1538 1542 1546 1549 1550 1551 1554 1557 1560 1560 1562 1565 1566 1567 1568 1569 1571 1573 1574 1574 1575 1577 1580 1583 1586 1588 1590 1592 1594 1595 1597
1499 1502 1502 1502 1504 1505 1506 1507 1508 1507 1507 1509 1512 1516 1520 1521 1525 1532 1536 1539 1542 1547 1549 1551 1552 1555 1558 1560 1561 1564 1566 1567 1569 1569 1570 1572 1574 1576 1576 1578 1579 1582 1585 1588 1591 1593 1595 1596 1598
1499 1504 1502 1502 1503 1504 1505 1507 1506 1504 1506 1507 1512 1515 1519 1522 1525 1528 1532 1538 1540 1544 1547 1549 1551 1554 1556 1560 1561 1563 1565 1567 1569 1570 1570 1572 1574 1577 1578 1579 1581 1583 1585 1588 1591 1593 1596 1598 1599
1502 1504 1509 1499 1501 1503 1506 1507 1498 1502 1502 1505 1510 1512 1515 1519 1523 1526 1532 1537 1540 1541 1545 1548 1549 1553 1556 1558 1560 1562 1565 1566 1568 1570 1571 1573 1575 1577 1578 1579 1581 1583 1585 1589 1591 1594 1596 1598 1599
1504 1511 1508 1501 1500 1502 1505 1501 1496 1498 1500 1504 1506 1510 1514 1519 1523 1526 1530 1535 1538 1540 1543 1545 1547 1551 1554 1556 1559 1561 1564 1566 1567 1569 1571 1573 1575 1577 1579 1580 1581 1583 1586 1588 1591 1593 1597 1597 1599
1506 1507 1504 1503 1500 1502 1504 1499 1496 1498 1499 1500 1503 1507 1511 1514 1517 1523 1527 1532 1535 1538 1541 1543 1546 1548 1552 1555 1557 1559 1562 1565 1567 1568 1570 1572 1575 1577 1579 1580 1582 1583 1585 1587 1590 1593 1595 1598 1599
1495 1499 1501 1496 1495 1499 1500 1498 1497 1496 1499 1500 1501 1504 1507 1510 1514 1521 1524 1529 1532 1535 1538 1540 1543 1546 1548 1551 1554 1557 1560 1563 1565 1567 1569 1571 1574 1577 1578 1581 1582 1584 1586 1588 1590 1592 1595 1597 1600
1494 1496 1499 1495 1495 1499 1499 1500 1496 1495 1492 1492 1494 1499 1502 1507 1509 1515 1520 1524 1527 1530 1534 1537 1540 1544 1546 1550 1554 1556 1559 1562 1564 1566 1567 1570 1573 1576 1578 1580 1582 1584 1586 1588 1590 1593 1594 1598 1600
1494 1498 1499 1496 1497 1498 1501 1501 1492 1488 1488 1490 1492 1491 1495 1496 1502 1507 1513 1517 1522 1525 1529 1534 1536 1540 1545 1547 1551 1553 1557 1559 1561 1564 1566 1568 1572 1575 1578 1580 1582 1584 1587 1588 1591 1594 1596 1597 1600
1496 1488 1492 1497 1506 1516 1502 1520 1492 1485 1485 1485 1483 1485 1488 1492 1497 1501 1506 1510 1514 1519 1526 1531 1534 1537 1541 1544 1547 1550 1554 1555 1559 1563 1566 1567 1570 1573 1577 1579 1581 1584 1587 1589 1592 1595 1598 1600 1601
1484 1483 1490 1496 1509 1511 1506 1531 1488 1482 1482 1476 1475 1475 1476 1480 1486 1493 1498 1503 1510 1516 1521 1527 1532 1535 1538 1541 1545 1549 1552 1556 1557 1560 1564 1566 1568 1571 1576 1578 1581 1584 1587 1590 1593 1595 1597 1600 1602
1481 1488 1497 1507 1512 1535 1507 1504 1492 1479 1468 1464 1467 1469 1470 1474 1480 1487 1495 1500 1505 1512 1518 1523 1527 1531 1535 1538 1542 1547 1550 1553 1555 1557 1561 1564 1567 1569 1573 1577 1580 1583 1586 1589 1592 1595 1597 1599 1601
1480 1490 1521 1526 1532 1511 1499 1505 1464 1462 1458 1456 1455 1457 1463 1468 1474 1480 1486 1492 1498 1503 1511 1518 1523 1528 1532 1536 1540 1544 1547 1551 1554 1555 1559 1561 1564 1567 1571 1574 1578 1581 1584 1587 1590 1593 1595 1597 1599
1480 1480 1505 1511 1512 1493 1502 1493 1466 1454 1453 1452 1452 1453 1457 1462 1467 1473 1479 1486 1491 1498 1506 1513 1519 1525 1530 1534 1538 1542 1546 1549 1552 1554 1557 1560 1563 1567 1569 1572 1576 1579 1582 1585 1588 1590 1593 1595 1597
1476 1481 1475 1503 1506 1518 1488 1474 1456 1454 1452 1451 1450 1449 1452 1457 1462 1468 1475 1481 1487 1493 1500 1507 1514 1521 1526 1531 1535 1539 1544 1547 1549 1552 1555 1559 1561 1564 1568 1570 1573 1576 1579 1582 1585 1588 1590 1592 1594
1468 1471 1483 1502 1508 1497 1476 1474 1455 1454 1451 1450 1449 1449 1452 1457 1461 1466 1471 1477 1483 1489 1497 1504 1510 1516 1522 1528 1532 1537 1541 1545 1548 1550 1553 1556 1559 1561 1565 1568 1571 1573 1576 1579 1582 1584 1587 1588 1590
1474 1479 1476 1476 1483 1485 1493 1462 1443 1437 1439 1445 1448 1449 1453 1456 1459 1463 1468 1474 1480 1486 1493 1499 1505 1511 1517 1523 1528 1533 1538 1543 1546 1549 1551 1554 1557 1559 1562 1565 1568 1571 1573 1576 1578 1581 1583 1585 1586
1466 1463 1465 1468 1480 1495 1493 1451 1437 1440 1440 1439 1443 1448 1452 1457 1458 1461 1465 1470 1476 1482 1488 1495 1501 1506 1513 1519 1524 1530 1535 1539 1543 1546 1549 1552 1554 1557 1560 1563 1566 1568 1570 1573 1575 1577 1579 1581 1583